Temperature
16 15 15 15 15 15 15 15 15 15 15 15 15 15 15 15 15 15 15 15 15 15 15 15 15 15 15 15 15 15 15 15 15 15 15 15 15 15 15 14 14 14 14
15 15 15 15 15 15 15 15 15 15 15 15 15 15 15 15 15 15 15 15 15 15 15 15 15 15 15 15 15 15 15 15 15 15 15 14 14 14 14 14 14 14 14
15 15 15 15 15 15 15 15 15 15 15 15 15 15 15 15 15 15 15 15 15 15 15 15 15 15 15 15 15 14 14 14 14 14 14 14 14 14 14 14 14 14 14
15 15 15 15 15 15 15 15 15 15 15 15 15 15 15 15 15 15 15 15 15 15 15 15 15 15 14 14 14 14 14 14 14 14 14 14 14 14 14 14 14 14 14
15 15 15 15 15 15 15 15 15 15 15 15 15 14 14 14 14 14 15 15 15 14 14 14 14 14 14 14 14 14 14 14 14 14 14 14 14 14 14 13 13 13 13
15 15 15 15 15 15 15 15 15 15 15 15 14 14 14 14 14 14 14 14 14 14 14 14 14 14 14 14 14 14 14 13 13 13 13 13 13 13 13 13 13 13 13
15 15 15 15 15 15 15 15 15 15 14 14 14 14 14 14 14 14 14 14 14 14 14 14 14 14 14 14 14 14 13 13 13 13 13 13 13 13 13 13 13 13 13
15 15 15 15 15 15 15 15 15 14 14 14 14 14 14 13 14 14 14 14 14 14 14 14 14 14 14 14 13 13 13 13 13 13 13 13 13 13 13 13 12 12 12
15 15 15 15 15 15 15 15 14 15 14 14 14 14 14 14 13 13 13 13 13 14 13 13 13 13 13 13 13 13 13 13 13 12 13 13 13 12 12 12 12 12 12
15 15 15 15 15 15 15 14 14 14 14 14 14 14 14 14 14 13 13 13 13 13 13 13 13 13 13 13 13 13 13 13 13 12 12 12 12 12 12 12 12 12 12
15 15 15 15 15 15 15 15 14 14 14 14 14 14 14 14 14 14 13 13 13 13 13 13 13 13 13 13 13 12 12 12 12 12 12 12 12 12 12 12 11 11 11
15 15 15 15 15 15 15 15 15 14 14 14 14 14 14 14 14 14 13 13 13 13 13 13 13 13 13 13 12 12 12 12 12 12 12 12 12 11 11 11 11 11 11
15 15 15 15 15 15 15 15 14 15 15 14 14 14 14 14 14 14 14 13 13 12 12 12 13 12 12 12 12 12 12 12 12 12 12 11 11 11 11 11 11 11 11
15 15 15 15 15 15 15 15 14 15 15 14 14 14 14 14 14 14 14 14 13 12 12 12 12 12 12 12 12 12 12 12 12 12 11 11 11 11 11 11 11 11 11
15 15 15 15 15 15 15 15 14 14 14 14 14 14 14 14 14 14 14 14 14 13 12 12 12 12 12 12 12 12 12 11 11 11 11 11 11 11 11 11 10 10 10
15 15 15 15 15 15 15 15 14 14 14 14 14 14 14 14 14 14 14 14 13 13 13 12 12 12 12 12 12 12 11 11 11 11 11 11 11 10 10 10 10 10 10
15 15 15 15 15 15 15 15 14 14 14 14 14 14 14 14 14 14 13 13 13 13 13 12 12 12 12 12 12 11 11 11 11 11 11 10 10 10 10 10 10 9 9
15 15 15 15 15 15 15 14 14 14 14 14 14 14 14 14 14 13 13 13 13 13 13 12 12 12 12 12 11 11 11 11 11 11 10 10 10 10 10 10 9 9 9
15 15 15 15 15 15 14 14 14 14 14 14 14 14 14 13 13 13 13 13 13 13 13 12 12 12 12 11 11 11 11 11 11 10 10 10 10 10 10 9 9 9 9
15 15 15 15 15 14 14 14 14 14 14 14 13 13 13 13 13 13 13 13 13 12 12 12 12 12 11 11 11 11 11 10 10 10 10 10 10 9 9 9 9 9 8
15 15 15 15 14 14 14 14 14 14 14 13 13 13 13 13 13 13 13 13 12 12 12 12 12 11 11 11 11 11 10 10 10 10 10 10 9 9 9 9 8 8 8
15 15 15 14 14 14 14 14 14 14 13 13 13 13 13 13 13 13 12 12 12 12 12 12 12 11 11 11 11 10 10 10 10 9 9 9 9 9 9 8 8 8 7
14 14 14 14 14 14 14 14 13 13 13 13 13 13 13 12 12 12 12 12 12 12 11 11 11 11 11 11 10 10 10 10 9 9 9 9 9 9 8 8 8 8 7
14 14 14 14 14 14 13 13 13 13 13 13 12 12 12 12 12 12 12 12 12 11 11 11 11 11 10 10 10 10 9 9 9 9 9 8 8 8 8 8 7 7 7
14 14 14 13 13 13 13 13 13 13 12 12 12 12 12 12 12 12 12 12 11 11 11 11 11 10 10 10 10 9 9 9 9 9 8 8 8 8 7 7 7 7 7
13 13 13 13 13 13 13 13 12 12 12 12 12 12 12 12 12 11 11 11 11 11 11 11 10 10 10 10 10 9 9 9 8 8 8 8 8 7 7 7 7 7 6
Wind_Speed
3 3 2 3 4 5 5 5 5 6 6 7 8 8 7 7 7 8 7 9 9 9 10 10 11 11 11 10 11 11 11 11 11 11 11 11 10 10 11 11 10 10 10
4 3 3 3 4 4 5 5 6 6 5 5 6 6 6 7 7 8 8 9 10 10 9 10 11 11 11 11 11 11 11 11 11 11 12 12 11 11 11 11 11 11 11
5 4 3 3 4 6 7 7 6 6 5 5 5 5 5 6 6 6 7 7 7 8 8 9 10 11 11 12 12 11 11 11 11 11 11 12 12 12 12 11 10 11 11
8 6 4 3 5 6 6 4 4 5 5 4 4 4 4 4 5 5 6 6 6 5 6 8 9 10 11 11 11 11 11 11 11 11 11 11 11 11 11 11 11 11 12
8 7 4 4 6 5 4 4 4 4 4 4 3 4 3 3 3 4 4 4 5 5 5 6 8 9 10 11 11 10 10 10 10 10 10 10 10 10 11 11 11 11 11
8 7 5 5 6 5 4 4 5 4 3 3 4 5 4 3 3 3 3 3 4 5 5 6 6 7 9 10 9 10 9 9 9 9 10 10 10 10 10 10 10 10 11
7 6 5 4 5 4 4 4 4 5 3 3 4 4 4 4 3 2 3 3 4 5 6 7 7 7 7 8 9 9 9 9 9 9 9 9 10 10 10 10 10 10 10
6 6 5 4 4 4 4 4 3 3 2 2 3 3 2 3 3 3 3 3 3 5 5 6 7 7 7 7 7 9 9 9 9 9 9 9 9 9 9 9 9 9 9
5 6 5 5 4 4 3 3 3 4 2 2 2 3 3 1 1 3 3 3 3 3 3 5 5 5 6 6 7 8 8 8 8 8 8 8 8 8 9 9 8 8 9
4 5 5 5 4 3 3 3 3 3 3 1 1 1 2 3 3 1 3 3 3 3 2 4 4 5 6 6 6 7 7 7 7 7 7 7 8 7 8 7 7 7 8
3 4 5 5 4 3 3 3 3 3 2 2 2 1 2 2 2 3 1 2 3 3 2 2 3 4 5 5 5 6 6 7 7 6 7 7 7 7 6 6 7 7 7
1 2 4 4 4 3 3 3 2 3 2 2 2 2 2 2 2 3 2 1 1 1 2 2 2 3 4 4 4 6 6 6 6 6 6 6 6 5 6 6 6 6 6
1 1 3 3 3 3 3 3 2 2 2 3 2 2 2 2 2 3 3 2 1 1 1 2 1 2 3 4 4 5 5 5 5 5 5 6 6 5 5 5 6 5 6
3 3 3 3 4 4 4 3 2 2 2 3 2 2 2 1 2 3 4 4 3 1 2 1 1 0 2 4 4 4 4 4 4 4 5 5 5 5 6 6 6 5 5
3 3 3 3 3 3 4 4 2 2 2 2 2 2 2 1 1 1 2 4 5 3 1 1 1 1 2 3 4 4 4 4 5 5 5 5 6 6 6 6 6 6 6
3 3 3 3 3 3 3 3 2 2 3 2 2 2 1 1 1 1 2 2 3 4 3 1 2 1 2 3 3 4 4 4 4 5 5 5 5 5 5 5 5 5 5
3 3 4 4 3 3 3 3 3 3 3 2 2 2 1 2 2 2 2 2 3 4 4 1 0 1 2 2 3 3 3 3 3 4 4 3 3 4 4 4 4 4 4
3 3 4 4 4 3 3 3 3 3 3 3 2 2 2 2 2 2 2 3 2 3 4 3 1 1 1 2 2 2 2 2 2 2 2 2 2 3 3 3 3 3 4
3 3 3 4 4 4 3 3 3 3 3 3 3 3 2 3 2 2 2 2 2 3 3 4 2 0 1 1 2 1 2 1 1 1 1 1 1 2 2 2 2 2 2
4 4 3 4 4 4 4 4 4 3 3 2 2 3 3 4 4 4 3 3 3 4 4 4 2 1 1 0 2 1 1 1 1 1 1 1 0 0 0 0 1 1 1
4 4 4 4 3 4 4 4 4 4 4 3 2 2 2 4 4 4 4 4 4 4 3 3 2 1 1 1 1 1 1 0 1 1 1 1 1 1 2 3 3 2 2
3 4 4 4 3 3 5 7 6 4 4 3 2 1 2 2 3 5 5 6 6 5 4 3 2 2 2 2 1 2 2 1 1 1 1 1 0 1 2 3 3 3 2
4 4 3 3 3 4 5 6 7 5 4 3 3 2 2 2 3 3 3 4 4 4 5 5 4 4 3 3 3 2 2 3 2 2 2 1 1 1 3 3 3 2 2
4 4 3 3 3 4 5 6 6 5 4 3 3 3 3 2 3 4 3 3 1 1 2 3 4 4 4 4 4 3 3 2 0 0 2 1 1 2 3 4 4 3 3
3 3 3 3 3 3 5 6 6 3 3 2 2 2 3 3 4 6 5 3 1 1 0 2 3 2 2 3 4 3 2 2 1 2 1 2 1 1 2 3 4 4 4
3 3 3 3 4 3 4 6 7 4 3 2 1 1 3 4 4 6 5 4 3 2 1 1 1 1 1 2 3 4 4 3 1 2 2 2 1 0 2 2 2 3 4
Wind_Direction
107 95 82 76 68 76 83 83 83 82 83 83 94 97 91 86 81 74 75 85 88 91 93 92 90 88 86 85 85 85 83 81 80 78 76 76 76 76 73 72 71 68 63
113 103 81 78 77 84 90 92 90 87 80 83 84 93 93 92 86 82 74 75 81 87 88 91 91 88 87 88 88 87 85 82 80 80 79 77 76 75 71 69 69 67 63
109 103 90 79 81 90 89 87 83 82 82 78 76 81 88 90 92 85 78 74 75 80 85 88 93 91 89 88 87 88 87 84 80 78 77 76 74 72 70 69 70 68 66
108 104 94 85 89 88 88 85 80 81 73 73 74 70 79 86 87 91 83 78 75 71 76 87 91 93 91 87 86 85 85 84 81 80 79 78 76 73 71 69 69 68 65
109 106 97 94 94 86 79 91 78 91 87 80 82 71 64 74 77 93 81 79 84 83 79 82 88 90 91 87 84 82 82 83 83 83 81 81 79 77 74 71 70 66 63
109 106 100 94 93 85 75 81 83 72 82 84 82 66 50 54 61 71 82 81 92 92 95 86 81 83 85 86 84 83 81 80 83 83 82 81 79 77 74 73 70 66 64
114 110 105 96 92 92 95 95 98 83 67 78 80 57 33 32 44 38 60 77 85 92 90 91 88 82 75 73 77 81 81 80 79 79 79 81 80 77 73 73 69 65 64
124 126 119 116 107 104 94 91 99 98 61 63 99 91 44 14 13 26 34 69 80 85 90 96 96 91 83 74 74 77 78 78 76 72 74 81 81 77 76 74 70 65 65
126 130 131 126 122 120 123 122 120 120 113 42 81 128 131 182 336 5 17 43 62 77 84 94 99 97 92 84 79 77 78 76 74 73 75 82 83 81 78 71 65 61 63
125 136 137 136 133 132 135 145 130 127 126 117 51 62 137 152 141 83 6 20 42 62 78 92 97 101 101 97 90 83 81 75 71 71 77 84 82 81 79 72 66 62 63
118 135 142 140 141 145 150 142 129 127 131 141 141 123 90 76 94 130 122 8 28 26 55 88 101 105 109 107 103 93 89 83 75 71 74 82 80 76 77 74 69 66 63
79 116 139 146 146 150 158 156 150 136 130 125 127 128 139 132 142 129 143 146 95 9 29 53 84 108 118 115 112 104 100 93 83 74 73 76 75 74 73 68 66 62 58
146 159 140 147 149 151 154 146 140 138 137 129 142 145 140 157 153 141 133 137 117 11 23 29 39 124 129 129 122 116 108 103 94 84 79 79 73 71 71 65 59 58 56
181 170 151 149 148 147 143 133 130 148 135 136 141 147 133 144 145 150 148 141 120 55 28 331 345 113 154 143 144 133 120 113 101 90 83 78 73 74 70 62 55 54 54
173 156 151 149 148 142 138 132 135 147 135 141 144 141 139 150 130 133 149 152 148 153 209 285 304 286 167 155 152 138 128 111 100 93 89 81 77 76 70 64 56 52 52
159 150 154 152 152 148 141 130 133 139 129 136 141 123 114 109 100 106 134 135 142 149 168 231 240 220 144 137 146 138 127 112 106 102 94 85 80 73 68 64 58 52 50
159 162 164 159 161 157 148 138 142 142 139 129 117 120 113 107 100 88 95 101 109 126 143 212 336 98 112 118 110 127 137 122 115 108 104 91 81 71 66 65 60 51 46
159 161 154 155 165 162 157 151 156 145 145 143 137 122 123 114 103 91 99 101 109 120 137 148 135 76 114 142 125 123 119 126 126 108 111 103 89 76 68 69 65 60 55
155 155 153 155 159 155 153 151 147 144 150 157 154 146 147 125 122 111 108 106 100 102 109 133 145 78 78 102 97 93 95 70 99 109 125 126 110 85 76 71 61 60 57
148 147 152 154 154 147 140 138 134 131 133 134 140 151 152 149 156 142 128 123 112 102 103 113 116 95 94 101 104 122 73 20 24 37 64 90 102 65 315 324 346 356 14
143 139 136 138 137 139 143 142 141 134 130 118 114 134 145 147 148 142 136 140 128 117 113 114 119 99 88 121 179 183 155 340 338 7 31 9 29 355 310 297 295 294 295
135 131 137 144 145 152 147 144 141 136 129 127 132 146 133 123 131 129 127 133 138 138 147 141 140 150 197 196 177 158 146 114 289 289 118 322 68 268 282 285 297 294 297
144 136 142 143 150 159 147 143 143 136 137 143 148 144 138 132 123 124 118 118 122 134 150 156 159 185 195 205 182 177 180 172 213 228 131 281 317 284 283 291 297 288 297
158 159 161 161 157 165 150 149 151 137 138 152 163 172 165 166 154 147 134 117 109 129 161 156 176 195 198 198 188 187 186 164 326 346 136 210 272 268 291 285 288 279 290
160 166 163 160 157 170 158 152 145 134 136 160 176 166 169 176 176 156 141 144 140 304 340 185 194 195 200 181 155 116 113 122 240 269 195 172 249 279 290 287 285 286 281
169 163 160 169 169 179 174 160 153 145 146 165 177 189 177 174 171 162 159 160 177 228 197 67 67 73 89 122 146 152 166 161 181 249 234 168 212 186 303 289 293 294 289
Height
1536 1536 1536 1536 1536 1537 1536 1537 1537 1537 1536 1537 1537 1537 1538 1538 1538 1538 1538 1538 1538 1538 1538 1538 1537 1537 1537 1536 1536 1536 1536 1536 1536 1536 1536 1536 1535 1535 1535 1534 1534 1534 1534
1537 1537 1537 1538 1538 1538 1538 1538 1538 1538 1538 1538 1538 1539 1539 1539 1540 1540 1540 1539 1539 1539 1539 1539 1538 1538 1537 1537 1537 1537 1537 1537 1537 1537 1537 1536 1536 1536 1535 1535 1535 1535 1534
1539 1539 1539 1539 1539 1539 1539 1539 1539 1539 1539 1540 1540 1540 1540 1541 1541 1541 1541 1541 1541 1540 1540 1540 1539 1539 1538 1538 1538 1538 1538 1539 1539 1538 1538 1537 1537 1537 1536 1536 1536 1535 1535
1539 1540 1539 1539 1540 1540 1540 1540 1540 1540 1540 1541 1541 1541 1541 1542 1542 1542 1542 1542 1541 1541 1541 1541 1540 1540 1540 1540 1540 1540 1540 1540 1540 1539 1539 1538 1538 1538 1537 1537 1536 1536 1536
1540 1540 1540 1540 1541 1541 1541 1541 1541 1542 1542 1542 1542 1542 1543 1543 1543 1543 1543 1543 1542 1542 1542 1542 1542 1541 1541 1541 1541 1541 1541 1541 1541 1540 1540 1539 1539 1538 1538 1537 1537 1537 1536
1541 1541 1541 1541 1542 1542 1542 1542 1543 1543 1543 1543 1543 1544 1544 1544 1544 1544 1544 1543 1543 1542 1542 1543 1543 1542 1542 1542 1542 1542 1542 1542 1541 1541 1541 1540 1540 1539 1539 1538 1538 1537 1537
1542 1542 1542 1542 1542 1543 1543 1543 1544 1544 1544 1544 1544 1544 1545 1545 1545 1545 1545 1544 1544 1543 1543 1543 1543 1543 1543 1543 1543 1543 1543 1543 1542 1542 1541 1541 1541 1540 1540 1539 1539 1538 1537
1543 1543 1543 1543 1543 1543 1544 1544 1544 1545 1545 1545 1545 1545 1546 1547 1546 1546 1545 1545 1544 1545 1545 1544 1544 1544 1544 1544 1544 1544 1544 1544 1543 1543 1542 1542 1541 1541 1540 1540 1539 1539 1538
1544 1543 1543 1544 1544 1544 1544 1545 1545 1546 1546 1546 1546 1546 1546 1546 1547 1547 1546 1545 1545 1545 1545 1545 1545 1545 1545 1545 1545 1545 1545 1544 1544 1543 1543 1542 1542 1542 1541 1541 1540 1539 1539
1544 1544 1544 1544 1545 1545 1545 1546 1546 1546 1546 1546 1546 1546 1547 1546 1546 1547 1547 1546 1546 1546 1546 1546 1546 1546 1546 1546 1546 1546 1545 1545 1544 1544 1543 1543 1543 1542 1542 1541 1541 1540 1539
1545 1545 1545 1545 1545 1545 1546 1546 1546 1546 1547 1547 1546 1546 1546 1546 1546 1546 1546 1547 1547 1547 1547 1547 1547 1547 1547 1547 1547 1546 1546 1545 1545 1545 1544 1544 1543 1543 1542 1542 1541 1540 1539
1545 1545 1545 1545 1545 1546 1546 1546 1546 1546 1547 1546 1546 1546 1546 1546 1546 1546 1546 1547 1547 1548 1548 1548 1548 1548 1548 1547 1547 1547 1547 1546 1546 1545 1545 1544 1544 1543 1543 1542 1541 1540 1539
1544 1545 1545 1545 1546 1546 1546 1546 1546 1546 1546 1546 1546 1546 1546 1546 1546 1546 1546 1546 1547 1547 1548 1548 1548 1548 1548 1548 1548 1548 1547 1547 1546 1546 1545 1544 1544 1543 1542 1542 1541 1540 1539
1544 1544 1545 1545 1545 1546 1546 1546 1546 1546 1546 1546 1545 1545 1545 1545 1545 1545 1546 1546 1546 1547 1547 1548 1548 1548 1548 1548 1548 1548 1548 1547 1547 1546 1545 1545 1544 1543 1542 1541 1541 1540 1539
1543 1544 1544 1545 1545 1545 1545 1545 1545 1545 1545 1545 1545 1545 1545 1545 1545 1545 1545 1545 1546 1546 1547 1547 1547 1548 1548 1548 1548 1548 1548 1547 1547 1546 1545 1545 1544 1543 1542 1542 1541 1540 1539
1543 1543 1544 1544 1544 1544 1544 1544 1545 1545 1545 1545 1545 1545 1545 1544 1544 1544 1544 1544 1545 1545 1545 1546 1547 1547 1547 1548 1548 1548 1547 1547 1547 1546 1546 1545 1544 1543 1542 1541 1540 1539 1538
1542 1542 1543 1543 1543 1543 1543 1544 1544 1544 1544 1544 1544 1544 1544 1544 1544 1543 1544 1544 1544 1544 1544 1546 1546 1547 1547 1547 1547 1547 1547 1547 1546 1546 1545 1545 1544 1543 1542 1541 1540 1539 1538
1541 1541 1542 1542 1542 1542 1542 1543 1543 1543 1543 1543 1543 1543 1543 1543 1543 1543 1543 1543 1543 1544 1544 1544 1545 1546 1546 1546 1547 1547 1547 1546 1546 1545 1545 1544 1543 1542 1541 1540 1539 1538 1537
1539 1540 1540 1541 1541 1541 1541 1541 1542 1542 1542 1542 1542 1542 1542 1542 1542 1542 1543 1543 1543 1543 1543 1544 1544 1545 1545 1545 1545 1545 1545 1545 1545 1544 1544 1543 1542 1542 1540 1539 1538 1537 1536
1538 1538 1539 1540 1540 1540 1540 1540 1541 1541 1541 1541 1541 1541 1541 1541 1542 1542 1542 1542 1542 1542 1543 1543 1543 1543 1544 1544 1544 1544 1544 1544 1543 1543 1543 1542 1541 1540 1539 1538 1537 1536 1534
1536 1537 1538 1538 1539 1539 1539 1539 1539 1540 1540 1540 1540 1540 1540 1541 1541 1541 1541 1541 1541 1542 1542 1542 1542 1542 1542 1542 1542 1542 1542 1542 1542 1542 1541 1541 1540 1539 1538 1537 1536 1535 1533
1534 1535 1536 1536 1537 1537 1538 1538 1538 1538 1539 1539 1539 1539 1539 1540 1540 1540 1540 1540 1541 1541 1541 1541 1540 1540 1540 1540 1540 1540 1540 1540 1540 1541 1539 1539 1538 1537 1536 1535 1534 1533 1532
1532 1533 1534 1534 1535 1535 1536 1536 1537 1537 1537 1537 1538 1538 1538 1538 1539 1539 1539 1539 1539 1540 1540 1540 1539 1539 1539 1539 1539 1538 1538 1538 1538 1538 1537 1536 1536 1535 1534 1533 1532 1531 1530
1530 1531 1532 1532 1533 1534 1534 1535 1535 1536 1536 1536 1536 1536 1537 1537 1537 1538 1538 1538 1538 1538 1538 1538 1538 1538 1538 1537 1537 1537 1536 1536 1536 1535 1535 1534 1533 1532 1532 1530 1529 1528 1527
1527 1528 1529 1530 1531 1532 1532 1533 1533 1533 1534 1534 1535 1535 1535 1535 1536 1536 1536 1536 1536 1536 1537 1536 1536 1536 1536 1535 1535 1535 1534 1533 1533 1532 1532 1531 1530 1529 1528 1527 1526 1525 1524
1524 1525 1526 1527 1528 1529 1530 1530 1531 1531 1532 1532 1533 1533 1533 1533 1534 1534 1534 1534 1534 1534 1534 1534 1534 1534 1533 1533 1533 1532 1532 1531 1530 1530 1529 1528 1527 1526 1525 1524 1523 1522 1521